Location: Newark
(44.9861°N, 0.2536°E)
Time: 19:58:32
(UTC+00:00)

HuskySat-1 - Pass Details

Date: 16 July 2020
Orbit: 457 x 471 km, 51.6° (Epoch: 11 August)

Event Time Altitude Azimuth Distance (km) Brightness Sun altitude
Rises 03:25:33 0° 300° (WNW) 2,490 ? -9.5°
Reaches altitude 10° 03:27:43 10° 303° (WNW) 1,610 ? -9.3°
Maximum altitude 03:31:20 67° 26° (NNE) 503 ? -8.8°
Drops below altitude 10° 03:34:55 10° 110° (ESE) 1,597 ? -8.3°
Sets 03:37:03 0° 113° (ESE) 2,467 ? -8.0°
